Location: Habighorst
(52.7089°N, 10.2278°E)
Time: 00:55:00
(UTC+00:00)

Cosmos 2227 Rocket - Pass Details

Date: 13 January 2026
Orbit: 837 x 845 km, 71.0° (Epoch: 18 February)

Event Time Altitude Azimuth Distance (km) Brightness Sun altitude
Exits shadow 06:41:27 - 326° (NW) 3,030 4.5 -6.5°
Reaches altitude 10° 06:43:59 10° 345° (NNW) 2,470 4.2 -6.1°
Maximum altitude 06:46:44 14° 15° (NNE) 2,222 4.3 -5.8°
Drops below altitude 10° 06:49:30 10° 44° (NE) 2,470 4.8 -5.4°
Sets 06:53:22 0° 70° (ENE) 3,405 6.0 -4.9°
